Time,TemperatureF,DewpointF,PressureIn,WindDirection,WindDirectionDegrees,WindSpeedMPH,WindSpeedGustMPH,Humidity,HourlyPrecipIn,Conditions,Clouds,dailyrainin,SoftwareType,DateUTC
2013-07-21 00:01:00,72.9,64.9,29.66,SSW,194,0.0,0.0,76,0.00,,,0.00,WeatherCatV1.15B25,2013-07-21 07:01:00,
2013-07-21 00:06:00,72.8,64.8,29.66,SSW,195,0.0,0.0,76,0.00,,,0.00,WeatherCatV1.15B25,2013-07-21 07:06:00,
2013-07-21 00:11:00,72.6,64.6,29.66,SSW,194,0.0,0.0,76,0.00,,,0.00,WeatherCatV1.15B25,2013-07-21 07:11:00,
2013-07-21 00:16:00,72.4,64.0,29.66,SSW,194,0.0,0.0,75,0.00,,,0.00,WeatherCatV1.15B25,2013-07-21 07:16:00,
2013-07-21 00:21:00,72.2,64.2,29.66,SSW,195,0.0,0.0,76,0.00,,,0.00,WeatherCatV1.15B25,2013-07-21 07:21:00,
2013-07-21 00:26:00,72.1,64.5,29.66,SSW,194,0.0,0.0,77,0.00,,,0.00,WeatherCatV1.15B25,2013-07-21 07:26:00,
2013-07-21 00:31:00,72.1,64.1,29.66,SSW,194,0.0,0.0,76,0.00,,,0.00,WeatherCatV1.15B25,2013-07-21 07:31:00,
2013-07-21 00:36:00,72.1,64.1,29.66,SSW,195,0.0,0.0,76,0.00,,,0.00,WeatherCatV1.15B25,2013-07-21 07:36:00,
2013-07-21 00:41:00,72.1,64.1,29.66,SSW,195,0.0,0.0,76,0.00,,,0.00,WeatherCatV1.15B25,2013-07-21 07:41:00,
2013-07-21 00:46:00,72.0,63.6,29.66,SSW,194,0.0,0.0,75,0.00,,,0.00,WeatherCatV1.15B25,2013-07-21 07:46:00,
2013-07-21 00:51:00,72.0,64.0,29.66,SSW,194,0.0,0.0,76,0.00,,,0.00,WeatherCatV1.15B25,2013-07-21 07:51:00,
2013-07-21 00:56:00,71.9,63.9,29.66,SSW,194,0.0,0.0,76,0.00,,,0.00,WeatherCatV1.15B25,2013-07-21 07:56:00,
2013-07-21 01:01:00,71.9,63.9,29.66,SSW,194,0.0,0.0,76,0.00,,,0.00,WeatherCatV1.15B25,2013-07-21 08:01:00,
2013-07-21 01:06:00,71.8,63.8,29.66,SSW,194,0.0,0.0,76,0.00,,,0.00,WeatherCatV1.15B25,2013-07-21 08:06:00,
2013-07-21 01:11:00,71.7,63.7,29.66,SSW,194,0.0,0.0,76,0.00,,,0.00,WeatherCatV1.15B25,2013-07-21 08:11:00,
2013-07-21 01:16:00,71.6,64.0,29.66,SSW,194,0.0,0.0,77,0.00,,,0.00,WeatherCatV1.15B25,2013-07-21 08:16:00,
2013-07-21 01:21:00,71.5,64.3,29.67,SSW,194,0.0,0.0,78,0.00,,,0.00,WeatherCatV1.15B25,2013-07-21 08:21:00,
2013-07-21 01:26:00,71.4,63.8,29.67,SSW,194,0.0,0.0,77,0.00,,,0.00,WeatherCatV1.15B25,2013-07-21 08:26:00,
2013-07-21 01:31:00,71.3,64.1,29.67,SSW,194,0.0,0.0,78,0.00,,,0.00,WeatherCatV1.15B25,2013-07-21 08:31:00,
2013-07-21 01:36:00,71.2,64.0,29.67,SSW,194,0.0,0.0,78,0.00,,,0.00,WeatherCatV1.15B25,2013-07-21 08:36:00,
2013-07-21 01:41:00,71.1,63.9,29.67,SSW,194,0.0,0.0,78,0.00,,,0.00,WeatherCatV1.15B25,2013-07-21 08:41:00,
2013-07-21 01:46:00,71.1,63.5,29.67,SSW,194,0.0,0.0,77,0.00,,,0.00,WeatherCatV1.15B25,2013-07-21 08:46:00,
2013-07-21 01:51:00,71.2,64.0,29.67,SSW,194,0.0,0.0,78,0.00,,,0.00,WeatherCatV1.15B25,2013-07-21 08:51:00,
2013-07-21 01:56:00,71.2,63.6,29.67,SSW,194,0.0,0.0,77,0.00,,,0.00,WeatherCatV1.15B25,2013-07-21 08:56:00,
2013-07-21 02:01:00,71.3,64.1,29.67,SSW,194,0.0,0.0,78,0.00,,,0.00,WeatherCatV1.15B25,2013-07-21 09:01:00,
2013-07-21 02:06:00,71.3,63.7,29.67,SSW,194,0.0,0.0,77,0.00,,,0.00,WeatherCatV1.15B25,2013-07-21 09:06:00,
2013-07-21 02:11:00,71.4,64.5,29.67,SSW,194,0.0,0.0,79,0.00,,,0.00,WeatherCatV1.15B25,2013-07-21 09:11:00,
2013-07-21 02:16:00,71.5,64.6,29.67,SSW,194,0.0,0.0,79,0.00,,,0.00,WeatherCatV1.15B25,2013-07-21 09:16:00,
2013-07-21 02:21:00,71.5,64.3,29.66,SSW,194,0.0,0.0,78,0.00,,,0.00,WeatherCatV1.15B25,2013-07-21 09:21:00,
2013-07-21 02:26:00,71.6,63.2,29.66,SSW,195,0.0,0.0,75,0.00,,,0.00,WeatherCatV1.15B25,2013-07-21 09:26:00,
2013-07-21 02:31:00,71.7,62.2,29.66,SSW,195,0.0,1.0,72,0.00,,,0.00,WeatherCatV1.15B25,2013-07-21 09:31:00,
2013-07-21 02:36:00,71.9,61.6,29.66,SSW,195,0.0,0.0,70,0.00,,,0.00,WeatherCatV1.15B25,2013-07-21 09:36:00,
2013-07-21 02:41:00,72.1,61.8,29.66,SSW,195,0.0,0.0,70,0.00,,,0.00,WeatherCatV1.15B25,2013-07-21 09:41:00,
2013-07-21 02:46:00,72.3,61.5,29.66,SSW,195,0.0,0.0,69,0.00,,,0.00,WeatherCatV1.15B25,2013-07-21 09:46:00,
2013-07-21 02:51:00,72.4,61.6,29.66,SSW,195,0.0,0.0,69,0.00,,,0.00,WeatherCatV1.15B25,2013-07-21 09:51:00,
2013-07-21 02:56:00,72.5,61.3,29.66,SSW,195,0.0,0.0,68,0.00,,,0.00,WeatherCatV1.15B25,2013-07-21 09:56:00,
2013-07-21 03:01:00,72.6,61.4,29.66,SSW,195,0.0,0.0,68,0.00,,,0.00,WeatherCatV1.15B25,2013-07-21 10:01:00,
2013-07-21 03:07:00,72.6,61.8,29.66,SSW,195,0.0,0.0,69,0.00,,,0.00,WeatherCatV1.15B25,2013-07-21 10:07:00,
2013-07-21 03:12:00,72.6,61.8,29.66,SSW,195,0.0,0.0,69,0.00,,,0.00,WeatherCatV1.15B25,2013-07-21 10:12:00,
2013-07-21 03:17:00,72.6,61.4,29.65,SSW,195,0.0,0.0,68,0.00,,,0.00,WeatherCatV1.15B25,2013-07-21 10:17:00,
2013-07-21 03:22:00,72.5,60.9,29.65,SSW,195,0.0,0.0,67,0.00,,,0.00,WeatherCatV1.15B25,2013-07-21 10:22:00,
2013-07-21 03:27:00,72.5,60.5,29.65,SW,236,0.0,1.0,66,0.00,,,0.00,WeatherCatV1.15B25,2013-07-21 10:27:00,
2013-07-21 03:32:00,72.4,60.8,29.65,WSW,240,0.0,1.0,67,0.00,,,0.00,WeatherCatV1.15B25,2013-07-21 10:32:00,
2013-07-21 03:37:00,72.4,60.0,29.65,WSW,240,0.0,0.0,65,0.00,,,0.00,WeatherCatV1.15B25,2013-07-21 10:37:00,
2013-07-21 03:42:00,72.4,59.5,29.65,WSW,240,0.0,0.0,64,0.00,,,0.00,WeatherCatV1.15B25,2013-07-21 10:42:00,
2013-07-21 03:47:00,72.4,60.0,29.65,WSW,240,0.0,0.0,65,0.00,,,0.00,WeatherCatV1.15B25,2013-07-21 10:47:00,
2013-07-21 03:52:00,72.3,60.3,29.65,WSW,240,0.0,0.0,66,0.00,,,0.00,WeatherCatV1.15B25,2013-07-21 10:52:00,
2013-07-21 03:57:00,72.1,59.2,29.65,WSW,240,0.0,0.0,64,0.00,,,0.00,WeatherCatV1.15B25,2013-07-21 10:57:00,
2013-07-21 04:02:00,72.0,59.1,29.66,WSW,240,0.0,0.0,64,0.00,,,0.00,WeatherCatV1.15B25,2013-07-21 11:02:00,
2013-07-21 04:07:00,71.9,59.0,29.66,WSW,240,0.0,0.0,64,0.00,,,0.00,WeatherCatV1.15B25,2013-07-21 11:07:00,
2013-07-21 04:12:00,71.9,59.5,29.65,WSW,240,0.0,0.0,65,0.00,,,0.00,WeatherCatV1.15B25,2013-07-21 11:12:00,
2013-07-21 04:17:00,71.7,59.3,29.66,WSW,240,0.0,0.0,65,0.00,,,0.00,WeatherCatV1.15B25,2013-07-21 11:17:00,
2013-07-21 04:22:00,71.5,60.0,29.66,WSW,240,0.0,0.0,67,0.00,,,0.00,WeatherCatV1.15B25,2013-07-21 11:22:00,
2013-07-21 04:27:00,71.4,60.3,29.66,WSW,240,0.0,0.0,68,0.00,,,0.00,WeatherCatV1.15B25,2013-07-21 11:27:00,
2013-07-21 04:32:00,71.3,60.2,29.66,WSW,240,0.0,0.0,68,0.00,,,0.00,WeatherCatV1.15B25,2013-07-21 11:32:00,
2013-07-21 04:37:00,71.1,60.0,29.66,WSW,240,0.0,1.0,68,0.00,,,0.00,WeatherCatV1.15B25,2013-07-21 11:37:00,
2013-07-21 04:42:00,71.0,60.3,29.67,WSW,250,0.0,1.0,69,0.00,,,0.00,WeatherCatV1.15B25,2013-07-21 11:42:00,
2013-07-21 04:47:00,70.9,60.2,29.66,WSW,250,0.0,0.0,69,0.00,,,0.00,WeatherCatV1.15B25,2013-07-21 11:47:00,
2013-07-21 04:52:00,70.9,60.2,29.67,WNW,286,0.0,0.0,69,0.00,,,0.00,WeatherCatV1.15B25,2013-07-21 11:52:00,
2013-07-21 04:57:00,70.9,60.2,29.67,WNW,286,0.0,0.0,69,0.00,,,0.00,WeatherCatV1.15B25,2013-07-21 11:57:00,
2013-07-21 05:02:00,70.9,60.2,29.67,WNW,286,0.0,0.0,69,0.00,,,0.00,WeatherCatV1.15B25,2013-07-21 12:02:00,
2013-07-21 05:07:00,70.8,60.5,29.67,WNW,283,0.0,0.0,70,0.00,,,0.00,WeatherCatV1.15B25,2013-07-21 12:07:00,
2013-07-21 05:12:00,70.8,60.5,29.67,WNW,284,0.0,0.0,70,0.00,,,0.00,WeatherCatV1.15B25,2013-07-21 12:12:00,
2013-07-21 05:17:00,70.6,60.7,29.68,WNW,284,0.0,0.0,71,0.00,,,0.00,WeatherCatV1.15B25,2013-07-21 12:17:00,
2013-07-21 05:22:00,70.4,60.5,29.68,WNW,284,0.0,0.0,71,0.00,,,0.00,WeatherCatV1.15B25,2013-07-21 12:22:00,
2013-07-21 05:27:00,70.3,60.8,29.68,WNW,284,0.0,0.0,72,0.00,,,0.00,WeatherCatV1.15B25,2013-07-21 12:27:00,
2013-07-21 05:32:00,70.0,60.5,29.68,WNW,284,0.0,0.0,72,0.00,,,0.00,WeatherCatV1.15B25,2013-07-21 12:32:00,
2013-07-21 05:37:00,69.8,60.4,29.68,WNW,284,0.0,0.0,72,0.00,,,0.00,WeatherCatV1.15B25,2013-07-21 12:37:00,
2013-07-21 05:42:00,69.6,60.2,29.68,WNW,284,0.0,0.0,72,0.00,,,0.00,WeatherCatV1.15B25,2013-07-21 12:42:00,
2013-07-21 05:47:00,69.4,60.7,29.69,WNW,283,0.0,0.0,74,0.00,,,0.00,WeatherCatV1.15B25,2013-07-21 12:47:00,
2013-07-21 05:52:00,69.2,60.2,29.68,WNW,284,0.0,0.0,73,0.00,,,0.00,WeatherCatV1.15B25,2013-07-21 12:52:00,
2013-07-21 05:57:00,69.0,60.7,29.68,WNW,284,0.0,0.0,75,0.00,,,0.00,WeatherCatV1.15B25,2013-07-21 12:57:00,
2013-07-21 06:02:00,68.9,60.6,29.68,WNW,283,0.0,0.0,75,0.00,,,0.00,WeatherCatV1.15B25,2013-07-21 13:02:00,
2013-07-21 06:07:00,68.7,60.4,29.68,WNW,284,0.0,0.0,75,0.00,,,0.00,WeatherCatV1.15B25,2013-07-21 13:07:00,
2013-07-21 06:12:00,68.4,60.5,29.68,WNW,283,0.0,0.0,76,0.00,,,0.00,WeatherCatV1.15B25,2013-07-21 13:12:00,
2013-07-21 06:17:00,68.2,60.7,29.69,WNW,283,0.0,0.0,77,0.00,,,0.00,WeatherCatV1.15B25,2013-07-21 13:17:00,
2013-07-21 06:22:00,68.0,60.5,29.68,WNW,283,0.0,0.0,77,0.00,,,0.00,WeatherCatV1.15B25,2013-07-21 13:22:00,
2013-07-21 06:27:00,67.9,60.8,29.69,WNW,284,0.0,0.0,78,0.00,,,0.00,WeatherCatV1.15B25,2013-07-21 13:27:00,
2013-07-21 06:32:00,67.7,60.6,29.69,WNW,283,0.0,0.0,78,0.00,,,0.00,WeatherCatV1.15B25,2013-07-21 13:32:00,
2013-07-21 06:37:00,67.6,60.8,29.69,WNW,284,0.0,0.0,79,0.00,,,0.00,WeatherCatV1.15B25,2013-07-21 13:37:00,
2013-07-21 06:42:00,67.6,60.8,29.69,WNW,284,0.0,0.0,79,0.00,,,0.00,WeatherCatV1.15B25,2013-07-21 13:42:00,
2013-07-21 06:47:00,67.5,60.7,29.70,WNW,284,0.0,0.0,79,0.00,,,0.00,WeatherCatV1.15B25,2013-07-21 13:47:00,
2013-07-21 06:52:00,67.6,60.8,29.69,WNW,284,0.0,0.0,79,0.00,,,0.00,WeatherCatV1.15B25,2013-07-21 13:52:00,
2013-07-21 06:57:00,67.6,60.5,29.70,WNW,284,0.0,0.0,78,0.00,,,0.00,WeatherCatV1.15B25,2013-07-21 13:57:00,
2013-07-21 07:02:00,67.7,60.9,29.69,WNW,284,0.0,0.0,79,0.00,,,0.00,WeatherCatV1.15B25,2013-07-21 14:02:00,
2013-07-21 07:07:00,67.9,60.8,29.70,WNW,283,0.0,0.0,78,0.00,,,0.00,WeatherCatV1.15B25,2013-07-21 14:07:00,
2013-07-21 07:12:00,68.4,60.9,29.70,WNW,284,0.0,0.0,77,0.00,,,0.00,WeatherCatV1.15B25,2013-07-21 14:12:00,
2013-07-21 07:17:00,68.7,60.4,29.70,WNW,283,0.0,0.0,75,0.00,,,0.00,WeatherCatV1.15B25,2013-07-21 14:17:00,
2013-07-21 07:23:00,69.0,60.7,29.70,WNW,284,0.0,0.0,75,0.00,,,0.00,WeatherCatV1.15B25,2013-07-21 14:23:00,
2013-07-21 07:28:00,69.3,60.3,29.70,WNW,283,0.0,0.0,73,0.00,,,0.00,WeatherCatV1.15B25,2013-07-21 14:28:00,
2013-07-21 07:33:00,69.5,60.8,29.70,WNW,284,0.0,0.0,74,0.00,,,0.00,WeatherCatV1.15B25,2013-07-21 14:33:00,
2013-07-21 07:38:00,69.9,60.8,29.70,WNW,284,0.0,0.0,73,0.00,,,0.00,WeatherCatV1.15B25,2013-07-21 14:38:00,
2013-07-21 07:43:00,70.4,61.3,29.70,WNW,283,0.0,0.0,73,0.00,,,0.00,WeatherCatV1.15B25,2013-07-21 14:43:00,
2013-07-21 07:48:00,70.8,61.7,29.70,WNW,283,0.0,0.0,73,0.00,,,0.00,WeatherCatV1.15B25,2013-07-21 14:48:00,
2013-07-21 07:53:00,71.3,61.8,29.70,WNW,284,0.0,0.0,72,0.00,,,0.00,WeatherCatV1.15B25,2013-07-21 14:53:00,
2013-07-21 07:58:00,71.9,62.4,29.70,WNW,284,0.0,0.0,72,0.00,,,0.00,WeatherCatV1.15B25,2013-07-21 14:58:00,
2013-07-21 08:03:00,72.6,61.8,29.70,WNW,284,0.0,1.0,69,0.00,,,0.00,WeatherCatV1.15B25,2013-07-21 15:03:00,
2013-07-21 08:08:00,73.5,62.7,29.70,WNW,283,0.0,0.0,69,0.00,,,0.00,WeatherCatV1.15B25,2013-07-21 15:08:00,
2013-07-21 08:13:00,74.5,62.8,29.70,WNW,283,0.0,0.0,67,0.00,,,0.00,WeatherCatV1.15B25,2013-07-21 15:13:00,
2013-07-21 08:18:00,75.4,63.7,29.70,WNW,283,0.0,0.0,67,0.00,,,0.00,WeatherCatV1.15B25,2013-07-21 15:18:00,
2013-07-21 08:23:00,76.4,65.0,29.71,WNW,283,0.0,0.0,68,0.00,,,0.00,WeatherCatV1.15B25,2013-07-21 15:23:00,
2013-07-21 08:28:00,77.4,65.6,29.71,WNW,283,0.0,0.0,67,0.00,,,0.00,WeatherCatV1.15B25,2013-07-21 15:28:00,
2013-07-21 08:33:00,78.2,65.9,29.71,WNW,283,0.0,0.0,66,0.00,,,0.00,WeatherCatV1.15B25,2013-07-21 15:33:00,
2013-07-21 08:38:00,78.9,65.2,29.71,WNW,283,0.0,0.0,63,0.00,,,0.00,WeatherCatV1.15B25,2013-07-21 15:38:00,
2013-07-21 08:43:00,79.7,64.6,29.71,WNW,283,0.0,0.0,60,0.00,,,0.00,WeatherCatV1.15B25,2013-07-21 15:43:00,
2013-07-21 08:48:00,80.2,65.0,29.71,SW,224,0.0,1.0,60,0.00,,,0.00,WeatherCatV1.15B25,2013-07-21 15:48:00,
2013-07-21 08:53:00,80.5,65.3,29.70,SW,225,0.0,2.0,60,0.00,,,0.00,WeatherCatV1.15B25,2013-07-21 15:53:00,
2013-07-21 08:58:00,80.6,65.4,29.70,SW,225,0.0,2.0,60,0.00,,,0.00,WeatherCatV1.15B25,2013-07-21 15:58:00,
2013-07-21 09:03:00,80.9,66.6,29.70,SW,225,0.0,0.0,62,0.00,,,0.00,WeatherCatV1.15B25,2013-07-21 16:03:00,
2013-07-21 09:08:00,81.3,66.1,29.70,SW,225,0.0,1.0,60,0.00,,,0.00,WeatherCatV1.15B25,2013-07-21 16:08:00,
2013-07-21 09:13:00,81.8,66.5,29.70,SW,225,0.0,1.0,60,0.00,,,0.00,WeatherCatV1.15B25,2013-07-21 16:13:00,
2013-07-21 09:18:00,82.7,68.3,29.70,SW,225,0.0,0.0,62,0.00,,,0.00,WeatherCatV1.15B25,2013-07-21 16:18:00,
2013-07-21 09:23:00,83.3,67.9,29.70,WSW,244,0.0,2.0,60,0.00,,,0.00,WeatherCatV1.15B25,2013-07-21 16:23:00,
2013-07-21 09:28:00,83.8,68.4,29.70,WSW,244,0.0,1.0,60,0.00,,,0.00,WeatherCatV1.15B25,2013-07-21 16:28:00,
2013-07-21 09:33:00,84.3,68.4,29.70,WSW,244,0.0,1.0,59,0.00,,,0.00,WeatherCatV1.15B25,2013-07-21 16:33:00,
2013-07-21 09:38:00,84.7,67.7,29.70,WSW,244,1.0,3.0,57,0.00,,,0.00,WeatherCatV1.15B25,2013-07-21 16:38:00,
2013-07-21 09:43:00,84.9,66.9,29.70,WSW,244,0.0,0.0,55,0.00,,,0.00,WeatherCatV1.15B25,2013-07-21 16:43:00,
2013-07-21 09:48:00,85.2,66.6,29.70,WSW,244,0.0,2.0,54,0.00,,,0.00,WeatherCatV1.15B25,2013-07-21 16:48:00,
2013-07-21 09:53:00,85.7,67.6,29.70,WSW,239,1.0,1.0,55,0.00,,,0.00,WeatherCatV1.15B25,2013-07-21 16:53:00,
2013-07-21 09:58:00,85.9,67.8,29.70,WSW,240,0.0,1.0,55,0.00,,,0.00,WeatherCatV1.15B25,2013-07-21 16:58:00,
2013-07-21 10:03:00,85.9,67.8,29.70,WSW,240,0.0,3.0,55,0.00,,,0.00,WeatherCatV1.15B25,2013-07-21 17:03:00,
2013-07-21 10:08:00,86.2,68.6,29.70,WSW,248,0.0,0.0,56,0.00,,,0.00,WeatherCatV1.15B25,2013-07-21 17:08:00,
2013-07-21 10:13:00,86.7,68.0,29.70,West,279,0.0,3.0,54,0.00,,,0.00,WeatherCatV1.15B25,2013-07-21 17:13:00,
2013-07-21 10:18:00,87.0,68.8,29.70,West,281,0.0,0.0,55,0.00,,,0.00,WeatherCatV1.15B25,2013-07-21 17:18:00,
2013-07-21 10:23:00,87.5,66.5,29.70,WNW,283,1.0,2.0,50,0.00,,,0.00,WeatherCatV1.15B25,2013-07-21 17:23:00,
2013-07-21 10:28:00,87.9,67.5,29.70,WNW,283,0.0,1.0,51,0.00,,,0.00,WeatherCatV1.15B25,2013-07-21 17:28:00,
2013-07-21 10:33:00,88.5,68.0,29.70,WNW,283,0.0,0.0,51,0.00,,,0.00,WeatherCatV1.15B25,2013-07-21 17:33:00,
2013-07-21 10:38:00,89.2,68.1,29.70,WNW,283,0.0,0.0,50,0.00,,,0.00,WeatherCatV1.15B25,2013-07-21 17:38:00,
2013-07-21 10:43:00,89.3,67.6,29.70,West,277,0.0,1.0,49,0.00,,,0.00,WeatherCatV1.15B25,2013-07-21 17:43:00,
2013-07-21 10:48:00,89.9,68.1,29.70,West,281,0.0,2.0,49,0.00,,,0.00,WeatherCatV1.15B25,2013-07-21 17:48:00,
2013-07-21 10:53:00,89.9,67.5,29.70,WNW,282,0.0,1.0,48,0.00,,,0.00,WeatherCatV1.15B25,2013-07-21 17:53:00,
2013-07-21 10:58:00,90.6,69.4,29.70,WNW,287,0.0,1.0,50,0.00,,,0.00,WeatherCatV1.15B25,2013-07-21 17:58:00,
2013-07-21 11:03:00,90.9,68.4,29.70,West,259,0.0,1.0,48,0.00,,,0.00,WeatherCatV1.15B25,2013-07-21 18:03:00,
2013-07-21 11:08:00,91.4,71.3,29.69,WNW,292,0.0,3.0,52,0.00,,,0.00,WeatherCatV1.15B25,2013-07-21 18:08:00,
2013-07-21 11:13:00,91.5,68.4,29.70,WNW,302,0.0,2.0,47,0.00,,,0.00,WeatherCatV1.15B25,2013-07-21 18:13:00,
2013-07-21 11:18:00,91.3,68.8,29.69,NW,318,0.0,2.0,48,0.00,,,0.00,WeatherCatV1.15B25,2013-07-21 18:18:00,
2013-07-21 11:23:00,91.6,66.6,29.69,NNW,338,3.0,3.0,44,0.00,,,0.00,WeatherCatV1.15B25,2013-07-21 18:23:00,
2013-07-21 11:28:00,91.7,71.0,29.69,NNW,337,3.0,3.0,51,0.00,,,0.00,WeatherCatV1.15B25,2013-07-21 18:28:00,
2013-07-21 11:33:00,92.0,67.6,29.69,NNW,338,1.0,2.0,45,0.00,,,0.00,WeatherCatV1.15B25,2013-07-21 18:33:00,
2013-07-21 11:38:00,92.6,68.1,29.69,NNW,334,0.0,1.0,45,0.00,,,0.00,WeatherCatV1.15B25,2013-07-21 18:38:00,
2013-07-21 11:43:00,92.9,67.1,29.70,NW,314,0.0,1.0,43,0.00,,,0.00,WeatherCatV1.15B25,2013-07-21 18:43:00,
2013-07-21 11:48:00,93.3,66.0,29.70,WNW,288,1.0,3.0,41,0.00,,,0.00,WeatherCatV1.15B25,2013-07-21 18:48:00,
2013-07-21 11:53:00,93.5,68.9,29.70,SW,223,0.0,3.0,45,0.00,,,0.00,WeatherCatV1.15B25,2013-07-21 18:53:00,
2013-07-21 11:58:00,93.6,67.0,29.69,SW,224,0.0,0.0,42,0.00,,,0.00,WeatherCatV1.15B25,2013-07-21 18:58:00,
2013-07-21 12:03:00,94.0,67.4,29.70,SW,221,0.0,1.0,42,0.00,,,0.00,WeatherCatV1.15B25,2013-07-21 19:03:00,
2013-07-21 12:08:00,94.3,66.9,29.69,SW,218,1.0,1.0,41,0.00,,,0.00,WeatherCatV1.15B25,2013-07-21 19:08:00,
2013-07-21 12:13:00,94.7,65.1,29.69,SW,218,0.0,0.0,38,0.00,,,0.00,WeatherCatV1.15B25,2013-07-21 19:13:00,
2013-07-21 12:18:00,95.1,68.3,29.69,WSW,251,0.0,0.0,42,0.00,,,0.00,WeatherCatV1.15B25,2013-07-21 19:18:00,
2013-07-21 12:23:00,95.9,70.4,29.69,WSW,250,0.0,1.0,44,0.00,,,0.00,WeatherCatV1.15B25,2013-07-21 19:23:00,
2013-07-21 12:28:00,96.1,67.1,29.69,WSW,248,0.0,1.0,39,0.00,,,0.00,WeatherCatV1.15B25,2013-07-21 19:28:00,
2013-07-21 12:33:00,96.2,69.3,29.69,WSW,246,3.0,3.0,42,0.00,,,0.00,WeatherCatV1.15B25,2013-07-21 19:33:00,
2013-07-21 12:38:00,96.4,66.6,29.69,WSW,251,0.0,1.0,38,0.00,,,0.00,WeatherCatV1.15B25,2013-07-21 19:38:00,
2013-07-21 12:43:00,96.5,65.9,29.69,WSW,250,0.0,0.0,37,0.00,,,0.00,WeatherCatV1.15B25,2013-07-21 19:43:00,
2013-07-21 12:48:00,96.6,67.5,29.69,WSW,243,1.0,2.0,39,0.00,,,0.00,WeatherCatV1.15B25,2013-07-21 19:48:00,
2013-07-21 12:53:00,96.8,65.4,29.68,WSW,242,0.0,4.0,36,0.00,,,0.00,WeatherCatV1.15B25,2013-07-21 19:53:00,
2013-07-21 12:58:00,96.7,63.7,29.68,WSW,241,0.0,3.0,34,0.00,,,0.00,WeatherCatV1.15B25,2013-07-21 19:58:00,
2013-07-21 13:03:00,97.0,67.1,29.68,WSW,242,1.0,1.0,38,0.00,,,0.00,WeatherCatV1.15B25,2013-07-21 20:03:00,
2013-07-21 13:08:00,96.7,62.8,29.68,NW,307,0.0,1.0,33,0.00,,,0.00,WeatherCatV1.15B25,2013-07-21 20:08:00,
2013-07-21 13:13:00,96.8,63.7,29.68,SW,225,1.0,3.0,34,0.00,,,0.00,WeatherCatV1.15B25,2013-07-21 20:13:00,
2013-07-21 13:18:00,97.0,62.2,29.68,SW,222,0.0,1.0,32,0.00,,,0.00,WeatherCatV1.15B25,2013-07-21 20:18:00,
2013-07-21 13:23:00,97.3,59.7,29.68,West,273,0.0,1.0,29,0.00,,,0.00,WeatherCatV1.15B25,2013-07-21 20:23:00,
2013-07-21 13:28:00,97.6,60.9,29.68,SSW,209,0.0,5.0,30,0.00,,,0.00,WeatherCatV1.15B25,2013-07-21 20:28:00,
2013-07-21 13:33:00,98.3,66.7,29.68,SSW,209,0.0,1.0,36,0.00,,,0.00,WeatherCatV1.15B25,2013-07-21 20:33:00,
2013-07-21 13:38:00,99.0,63.9,29.67,SSW,209,0.0,0.0,32,0.00,,,0.00,WeatherCatV1.15B25,2013-07-21 20:38:00,
2013-07-21 13:43:00,99.3,65.9,29.67,SSW,209,1.0,1.0,34,0.00,,,0.00,WeatherCatV1.15B25,2013-07-21 20:43:00,
2013-07-21 13:48:00,99.8,61.8,29.68,SSW,209,0.0,1.0,29,0.00,,,0.00,WeatherCatV1.15B25,2013-07-21 20:48:00,
2013-07-21 13:53:00,99.8,60.8,29.68,WSW,242,0.0,4.0,28,0.00,,,0.00,WeatherCatV1.15B25,2013-07-21 20:53:00,
2013-07-21 13:58:00,99.6,63.5,29.68,WSW,244,0.0,0.0,31,0.00,,,0.00,WeatherCatV1.15B25,2013-07-21 20:58:00,
2013-07-21 14:03:00,100.0,66.5,29.68,West,272,0.0,1.0,34,0.00,,,0.00,WeatherCatV1.15B25,2013-07-21 21:03:00,
2013-07-21 14:08:00,100.1,64.0,29.68,West,272,0.0,0.0,31,0.00,,,0.00,WeatherCatV1.15B25,2013-07-21 21:08:00,
2013-07-21 14:13:00,100.4,61.3,29.68,West,272,0.0,0.0,28,0.00,,,0.00,WeatherCatV1.15B25,2013-07-21 21:13:00,
2013-07-21 14:18:00,100.3,61.2,29.68,West,276,0.0,1.0,28,0.00,,,0.00,WeatherCatV1.15B25,2013-07-21 21:18:00,
2013-07-21 14:23:00,99.6,59.6,29.68,North,5,0.0,2.0,27,0.00,,,0.00,WeatherCatV1.15B25,2013-07-21 21:23:00,
2013-07-21 14:28:00,99.4,64.3,29.68,North,5,0.0,0.0,32,0.00,,,0.00,WeatherCatV1.15B25,2013-07-21 21:28:00,
2013-07-21 14:33:00,100.0,64.8,29.68,North,351,0.0,0.0,32,0.00,,,0.00,WeatherCatV1.15B25,2013-07-21 21:33:00,
2013-07-21 14:38:00,100.5,61.4,29.68,North,0,0.0,0.0,28,0.00,,,0.00,WeatherCatV1.15B25,2013-07-21 21:38:00,
2013-07-21 14:43:00,100.5,57.1,29.68,North,0,0.0,1.0,24,0.00,,,0.00,WeatherCatV1.15B25,2013-07-21 21:43:00,
2013-07-21 14:48:00,100.6,61.5,29.68,North,0,0.0,0.0,28,0.00,,,0.00,WeatherCatV1.15B25,2013-07-21 21:48:00,
2013-07-21 14:53:00,101.1,60.9,29.68,NNW,329,0.0,0.0,27,0.00,,,0.00,WeatherCatV1.15B25,2013-07-21 21:53:00,
2013-07-21 14:58:00,101.2,59.9,29.67,NNW,327,0.0,1.0,26,0.00,,,0.00,WeatherCatV1.15B25,2013-07-21 21:58:00,
2013-07-21 15:03:00,101.7,62.4,29.67,NW,325,0.0,0.0,28,0.00,,,0.00,WeatherCatV1.15B25,2013-07-21 22:03:00,
2013-07-21 15:08:00,101.8,61.5,29.67,NNW,329,0.0,1.0,27,0.00,,,0.00,WeatherCatV1.15B25,2013-07-21 22:08:00,
2013-07-21 15:13:00,101.9,60.5,29.67,NNW,329,0.0,0.0,26,0.00,,,0.00,WeatherCatV1.15B25,2013-07-21 22:13:00,
2013-07-21 15:18:00,102.4,62.0,29.66,NNW,329,0.0,1.0,27,0.00,,,0.00,WeatherCatV1.15B25,2013-07-21 22:18:00,
2013-07-21 15:23:00,102.3,64.9,29.66,NNE,17,0.0,1.0,30,0.00,,,0.00,WeatherCatV1.15B25,2013-07-21 22:23:00,
2013-07-21 15:28:00,102.6,61.1,29.66,NNE,17,0.0,0.0,26,0.00,,,0.00,WeatherCatV1.15B25,2013-07-21 22:28:00,
2013-07-21 15:33:00,103.0,56.7,29.66,NNE,18,1.0,2.0,22,0.00,,,0.00,WeatherCatV1.15B25,2013-07-21 22:33:00,
2013-07-21 15:38:00,103.4,58.3,29.66,NNE,12,0.0,0.0,23,0.00,,,0.00,WeatherCatV1.15B25,2013-07-21 22:38:00,
2013-07-21 15:43:00,103.7,56.0,29.66,North,9,0.0,0.0,21,0.00,,,0.00,WeatherCatV1.15B25,2013-07-21 22:43:00,
2013-07-21 15:48:00,104.1,63.4,29.66,NNW,333,0.0,5.0,27,0.00,,,0.00,WeatherCatV1.15B25,2013-07-21 22:48:00,
2013-07-21 15:53:00,104.1,66.4,29.65,NNW,333,0.0,1.0,30,0.00,,,0.00,WeatherCatV1.15B25,2013-07-21 22:53:00,
2013-07-21 15:58:00,104.1,64.4,29.65,NNW,333,0.0,3.0,28,0.00,,,0.00,WeatherCatV1.15B25,2013-07-21 22:58:00,
2013-07-21 16:03:00,104.0,64.4,29.65,NNW,333,3.0,3.0,28,0.00,,,0.00,WeatherCatV1.15B25,2013-07-21 23:03:00,
2013-07-21 16:08:00,103.8,63.2,29.66,NNW,329,0.0,3.0,27,0.00,,,0.00,WeatherCatV1.15B25,2013-07-21 23:08:00,
2013-07-21 16:13:00,103.6,63.0,29.66,NNW,333,2.0,2.0,27,0.00,,,0.00,WeatherCatV1.15B25,2013-07-21 23:13:00,
2013-07-21 16:18:00,103.2,61.6,29.66,NW,325,2.0,5.0,26,0.00,,,0.00,WeatherCatV1.15B25,2013-07-21 23:18:00,
2013-07-21 16:23:00,102.8,62.3,29.66,NNW,327,0.0,3.0,27,0.00,,,0.00,WeatherCatV1.15B25,2013-07-21 23:23:00,
2013-07-21 16:28:00,102.7,66.2,29.65,NNW,334,0.0,3.0,31,0.00,,,0.00,WeatherCatV1.15B25,2013-07-21 23:28:00,
2013-07-21 16:33:00,102.7,60.1,29.65,NNW,342,0.0,5.0,25,0.00,,,0.00,WeatherCatV1.15B25,2013-07-21 23:33:00,
2013-07-21 16:38:00,102.0,64.6,29.65,NNW,344,0.0,2.0,30,0.00,,,0.00,WeatherCatV1.15B25,2013-07-21 23:38:00,
2013-07-21 16:43:00,101.5,63.2,29.66,NNW,344,0.0,0.0,29,0.00,,,0.00,WeatherCatV1.15B25,2013-07-21 23:43:00,
2013-07-21 16:48:00,100.7,60.5,29.65,NNW,344,0.0,1.0,27,0.00,,,0.00,WeatherCatV1.15B25,2013-07-21 23:48:00,
2013-07-21 16:53:00,99.9,60.9,29.65,NNW,344,0.0,0.0,28,0.00,,,0.00,WeatherCatV1.15B25,2013-07-21 23:53:00,
2013-07-21 16:58:00,99.5,62.5,29.65,NNW,344,0.0,0.0,30,0.00,,,0.00,WeatherCatV1.15B25,2013-07-21 23:58:00,
2013-07-21 17:03:00,99.3,64.2,29.65,NNW,344,0.0,0.0,32,0.00,,,0.00,WeatherCatV1.15B25,2013-07-22 00:03:00,
2013-07-21 17:08:00,99.8,65.5,29.65,NNW,344,0.0,1.0,33,0.00,,,0.00,WeatherCatV1.15B25,2013-07-22 00:08:00,
2013-07-21 17:13:00,100.2,64.0,29.65,NNW,344,1.0,1.0,31,0.00,,,0.00,WeatherCatV1.15B25,2013-07-22 00:13:00,
2013-07-21 17:18:00,100.3,62.2,29.65,NNW,344,0.0,1.0,29,0.00,,,0.00,WeatherCatV1.15B25,2013-07-22 00:18:00,
2013-07-21 17:23:00,100.5,61.4,29.65,NNW,344,0.0,1.0,28,0.00,,,0.00,WeatherCatV1.15B25,2013-07-22 00:23:00,
2013-07-21 17:28:00,100.9,63.7,29.65,NNW,344,0.0,1.0,30,0.00,,,0.00,WeatherCatV1.15B25,2013-07-22 00:28:00,
2013-07-21 17:33:00,101.4,67.7,29.64,NNW,344,0.0,0.0,34,0.00,,,0.00,WeatherCatV1.15B25,2013-07-22 00:33:00,
2013-07-21 17:38:00,101.7,68.8,29.64,NNW,344,0.0,0.0,35,0.00,,,0.00,WeatherCatV1.15B25,2013-07-22 00:38:00,
2013-07-21 17:43:00,101.9,64.6,29.64,NNW,344,0.0,1.0,30,0.00,,,0.00,WeatherCatV1.15B25,2013-07-22 00:43:00,
2013-07-21 17:48:00,102.1,61.7,29.64,NNW,344,0.0,1.0,27,0.00,,,0.00,WeatherCatV1.15B25,2013-07-22 00:48:00,
2013-07-21 17:53:00,101.9,61.6,29.65,NNW,344,0.0,1.0,27,0.00,,,0.00,WeatherCatV1.15B25,2013-07-22 00:53:00,
2013-07-21 17:58:00,101.4,62.2,29.65,NNW,344,0.0,0.0,28,0.00,,,0.00,WeatherCatV1.15B25,2013-07-22 00:58:00,
2013-07-21 18:03:00,100.8,63.6,29.65,NNW,344,0.0,0.0,30,0.00,,,0.00,WeatherCatV1.15B25,2013-07-22 01:03:00,
2013-07-21 18:08:00,100.2,64.9,29.65,NNW,344,0.0,0.0,32,0.00,,,0.00,WeatherCatV1.15B25,2013-07-22 01:08:00,
2013-07-21 18:13:00,99.4,64.3,29.65,NNW,344,0.0,0.0,32,0.00,,,0.00,WeatherCatV1.15B25,2013-07-22 01:13:00,
2013-07-21 18:18:00,98.9,62.9,29.65,NNW,344,0.0,0.0,31,0.00,,,0.00,WeatherCatV1.15B25,2013-07-22 01:18:00,
2013-07-21 18:23:00,98.4,66.8,29.65,NNW,344,0.0,0.0,36,0.00,,,0.00,WeatherCatV1.15B25,2013-07-22 01:23:00,
2013-07-21 18:28:00,97.7,72.0,29.65,NNW,344,0.0,0.0,44,0.00,,,0.00,WeatherCatV1.15B25,2013-07-22 01:28:00,
2013-07-21 18:33:00,97.2,72.9,29.66,NNW,344,0.0,0.0,46,0.00,,,0.00,WeatherCatV1.15B25,2013-07-22 01:33:00,
2013-07-21 18:38:00,96.8,75.0,29.66,NNW,344,0.0,0.0,50,0.00,,,0.00,WeatherCatV1.15B25,2013-07-22 01:38:00,
2013-07-21 18:43:00,96.4,75.3,29.66,NNW,344,0.0,0.0,51,0.00,,,0.00,WeatherCatV1.15B25,2013-07-22 01:43:00,
2013-07-21 18:48:00,96.0,74.9,29.66,NNW,344,0.0,0.0,51,0.00,,,0.00,WeatherCatV1.15B25,2013-07-22 01:48:00,
2013-07-21 18:53:00,95.7,72.8,29.66,NNW,344,0.0,0.0,48,0.00,,,0.00,WeatherCatV1.15B25,2013-07-22 01:53:00,
2013-07-21 18:58:00,95.4,71.9,29.66,NNW,344,0.0,0.0,47,0.00,,,0.00,WeatherCatV1.15B25,2013-07-22 01:58:00,
2013-07-21 19:03:00,95.1,71.0,29.66,NNW,344,0.0,0.0,46,0.00,,,0.00,WeatherCatV1.15B25,2013-07-22 02:03:00,
2013-07-21 19:08:00,94.9,70.8,29.66,NNW,344,0.0,0.0,46,0.00,,,0.00,WeatherCatV1.15B25,2013-07-22 02:08:00,
2013-07-21 19:13:00,94.7,70.0,29.66,NNW,344,0.0,0.0,45,0.00,,,0.00,WeatherCatV1.15B25,2013-07-22 02:13:00,
2013-07-21 19:18:00,94.4,67.7,29.66,NNW,344,0.0,0.0,42,0.00,,,0.00,WeatherCatV1.15B25,2013-07-22 02:18:00,
2013-07-21 19:23:00,94.3,67.6,29.67,NNW,344,0.0,0.0,42,0.00,,,0.00,WeatherCatV1.15B25,2013-07-22 02:23:00,
2013-07-21 19:28:00,94.1,68.1,29.66,NNW,344,0.0,0.0,43,0.00,,,0.00,WeatherCatV1.15B25,2013-07-22 02:28:00,
2013-07-21 19:33:00,93.9,68.6,29.66,NNW,344,0.0,0.0,44,0.00,,,0.00,WeatherCatV1.15B25,2013-07-22 02:33:00,
2013-07-21 19:38:00,93.7,68.4,29.66,NNW,344,0.0,0.0,44,0.00,,,0.00,WeatherCatV1.15B25,2013-07-22 02:38:00,
2013-07-21 19:43:00,93.4,68.8,29.66,NNW,344,0.0,0.0,45,0.00,,,0.00,WeatherCatV1.15B25,2013-07-22 02:43:00,
2013-07-21 19:48:00,92.9,69.0,29.66,NNW,344,0.0,0.0,46,0.00,,,0.00,WeatherCatV1.15B25,2013-07-22 02:48:00,
2013-07-21 19:53:00,92.5,70.5,29.66,NNW,344,0.0,0.0,49,0.00,,,0.00,WeatherCatV1.15B25,2013-07-22 02:53:00,
2013-07-21 19:58:00,92.1,70.1,29.67,NNW,344,0.0,0.0,49,0.00,,,0.00,WeatherCatV1.15B25,2013-07-22 02:58:00,
2013-07-21 20:03:00,91.6,69.7,29.66,NNW,344,0.0,0.0,49,0.00,,,0.00,WeatherCatV1.15B25,2013-07-22 03:03:00,
2013-07-21 20:08:00,90.9,69.6,29.66,NNW,344,0.0,0.0,50,0.00,,,0.00,WeatherCatV1.15B25,2013-07-22 03:08:00,
2013-07-21 20:13:00,90.5,69.9,29.66,NNW,344,0.0,0.0,51,0.00,,,0.00,WeatherCatV1.15B25,2013-07-22 03:13:00,
2013-07-21 20:18:00,90.0,68.8,29.65,West,277,3.0,3.0,50,0.00,,,0.00,WeatherCatV1.15B25,2013-07-22 03:18:00,
2013-07-21 20:23:00,89.5,67.2,29.65,WSW,254,1.0,2.0,48,0.00,,,0.00,WeatherCatV1.15B25,2013-07-22 03:23:00,
2013-07-21 20:28:00,89.3,67.0,29.66,WSW,254,0.0,0.0,48,0.00,,,0.00,WeatherCatV1.15B25,2013-07-22 03:28:00,
2013-07-21 20:33:00,89.2,66.9,29.66,WSW,255,0.0,0.0,48,0.00,,,0.00,WeatherCatV1.15B25,2013-07-22 03:33:00,
2013-07-21 20:38:00,89.0,67.3,29.66,WSW,254,0.0,0.0,49,0.00,,,0.00,WeatherCatV1.15B25,2013-07-22 03:38:00,
2013-07-21 20:43:00,88.8,67.1,29.67,WSW,255,0.0,0.0,49,0.00,,,0.00,WeatherCatV1.15B25,2013-07-22 03:43:00,
2013-07-21 20:48:00,88.6,67.5,29.67,WSW,255,0.0,0.0,50,0.00,,,0.00,WeatherCatV1.15B25,2013-07-22 03:48:00,
2013-07-21 20:53:00,88.2,67.7,29.67,WSW,255,0.0,0.0,51,0.00,,,0.00,WeatherCatV1.15B25,2013-07-22 03:53:00,
2013-07-21 20:58:00,87.9,67.5,29.68,WSW,255,0.0,0.0,51,0.00,,,0.00,WeatherCatV1.15B25,2013-07-22 03:58:00,
2013-07-21 21:01:00,87.8,67.9,29.68,WSW,255,0.0,0.0,52,0.00,,,0.00,WeatherCatV1.15B25,2013-07-22 04:01:00,
2013-07-21 21:06:00,87.3,67.5,29.68,WSW,255,0.0,0.0,52,0.00,,,0.00,WeatherCatV1.15B25,2013-07-22 04:06:00,
2013-07-21 21:11:00,87.1,68.4,29.69,WSW,255,0.0,0.0,54,0.00,,,0.00,WeatherCatV1.15B25,2013-07-22 04:11:00,
2013-07-21 21:16:00,86.7,67.5,29.69,WSW,255,0.0,0.0,53,0.00,,,0.00,WeatherCatV1.15B25,2013-07-22 04:16:00,
2013-07-21 21:21:00,86.2,68.1,29.69,WSW,255,0.0,0.0,55,0.00,,,0.00,WeatherCatV1.15B25,2013-07-22 04:21:00,
2013-07-21 21:26:00,85.6,68.1,29.69,WSW,255,0.0,0.0,56,0.00,,,0.00,WeatherCatV1.15B25,2013-07-22 04:26:00,
2013-07-21 21:31:00,85.2,68.7,29.70,WSW,254,0.0,0.0,58,0.00,,,0.00,WeatherCatV1.15B25,2013-07-22 04:31:00,
2013-07-21 21:36:00,84.7,68.8,29.70,WSW,255,0.0,0.0,59,0.00,,,0.00,WeatherCatV1.15B25,2013-07-22 04:36:00,
2013-07-21 21:41:00,84.3,69.4,29.71,WSW,254,0.0,0.0,61,0.00,,,0.00,WeatherCatV1.15B25,2013-07-22 04:41:00,
2013-07-21 21:46:00,83.9,68.5,29.71,WSW,255,0.0,0.0,60,0.00,,,0.00,WeatherCatV1.15B25,2013-07-22 04:46:00,
2013-07-21 21:51:00,83.5,68.1,29.71,WSW,254,0.0,0.0,60,0.00,,,0.00,WeatherCatV1.15B25,2013-07-22 04:51:00,
2013-07-21 21:56:00,83.2,67.8,29.71,WSW,254,0.0,0.0,60,0.00,,,0.00,WeatherCatV1.15B25,2013-07-22 04:56:00,
2013-07-21 22:01:00,82.9,68.0,29.72,WSW,255,0.0,0.0,61,0.00,,,0.00,WeatherCatV1.15B25,2013-07-22 05:01:00,
2013-07-21 22:06:00,82.7,68.3,29.72,WSW,255,0.0,0.0,62,0.00,,,0.00,WeatherCatV1.15B25,2013-07-22 05:06:00,
2013-07-21 22:11:00,82.5,68.1,29.73,WSW,254,0.0,0.0,62,0.00,,,0.00,WeatherCatV1.15B25,2013-07-22 05:11:00,
2013-07-21 22:16:00,82.3,68.9,29.73,WSW,254,0.0,0.0,64,0.00,,,0.00,WeatherCatV1.15B25,2013-07-22 05:16:00,
2013-07-21 22:21:00,82.1,69.1,29.73,WSW,255,0.0,0.0,65,0.00,,,0.00,WeatherCatV1.15B25,2013-07-22 05:21:00,
2013-07-21 22:26:00,81.8,68.9,29.73,WSW,255,0.0,0.0,65,0.00,,,0.00,WeatherCatV1.15B25,2013-07-22 05:26:00,
2013-07-21 22:31:00,81.6,68.2,29.74,WSW,254,0.0,0.0,64,0.00,,,0.00,WeatherCatV1.15B25,2013-07-22 05:31:00,
2013-07-21 22:36:00,81.5,68.1,29.74,WSW,255,0.0,0.0,64,0.00,,,0.00,WeatherCatV1.15B25,2013-07-22 05:36:00,
2013-07-21 22:41:00,81.4,68.0,29.75,WSW,255,0.0,0.0,64,0.00,,,0.00,WeatherCatV1.15B25,2013-07-22 05:41:00,
2013-07-21 22:46:00,81.2,67.8,29.75,WSW,254,0.0,0.0,64,0.00,,,0.00,WeatherCatV1.15B25,2013-07-22 05:46:00,
2013-07-21 22:51:00,81.1,68.2,29.75,WSW,255,0.0,0.0,65,0.00,,,0.00,WeatherCatV1.15B25,2013-07-22 05:51:00,
2013-07-21 22:56:00,81.0,68.1,29.75,WSW,255,0.0,0.0,65,0.00,,,0.00,WeatherCatV1.15B25,2013-07-22 05:56:00,
2013-07-21 23:01:00,80.9,68.0,29.75,WSW,255,0.0,0.0,65,0.00,,,0.00,WeatherCatV1.15B25,2013-07-22 06:01:00,
2013-07-21 23:06:00,80.8,67.9,29.75,WSW,255,0.0,0.0,65,0.00,,,0.00,WeatherCatV1.15B25,2013-07-22 06:06:00,
2013-07-21 23:11:00,80.7,67.8,29.76,WSW,255,0.0,1.0,65,0.00,,,0.00,WeatherCatV1.15B25,2013-07-22 06:11:00,
2013-07-21 23:16:00,80.8,67.5,29.76,WSW,255,0.0,0.0,64,0.00,,,0.00,WeatherCatV1.15B25,2013-07-22 06:16:00,
2013-07-21 23:21:00,80.8,68.4,29.75,WSW,254,0.0,0.0,66,0.00,,,0.00,WeatherCatV1.15B25,2013-07-22 06:21:00,
2013-07-21 23:26:00,80.8,68.4,29.75,WSW,255,0.0,0.0,66,0.00,,,0.00,WeatherCatV1.15B25,2013-07-22 06:26:00,
2013-07-21 23:31:00,80.8,68.4,29.75,WSW,255,0.0,0.0,66,0.00,,,0.00,WeatherCatV1.15B25,2013-07-22 06:31:00,
2013-07-21 23:36:00,80.7,67.8,29.75,WSW,254,0.0,0.0,65,0.00,,,0.00,WeatherCatV1.15B25,2013-07-22 06:36:00,
2013-07-21 23:41:00,80.6,67.7,29.75,WSW,255,0.0,0.0,65,0.00,,,0.00,WeatherCatV1.15B25,2013-07-22 06:41:00,
2013-07-21 23:46:00,80.5,67.6,29.74,WSW,254,0.0,3.0,65,0.00,,,0.00,WeatherCatV1.15B25,2013-07-22 06:46:00,
2013-07-21 23:51:00,80.7,66.4,29.73,WSW,246,0.0,4.0,62,0.00,,,0.00,WeatherCatV1.15B25,2013-07-22 06:51:00,
2013-07-21 23:56:00,81.0,66.3,29.73,WSW,246,0.0,1.0,61,0.00,,,0.00,WeatherCatV1.15B25,2013-07-22 06:56:00,